Погода в Львове

Россия / Тамбовская область     52°03′34″N   41°27′57″E
темп.,
°C
ветер,
м/с
пор.,
м/с
влажн.,
%
обл.,
%
осадки,
мм/ч
давл.,
гПа
погр.,
м
16 сентября, чт
чт1600:00+8сз23612 0.0 101432
03:00+7сз33660 0.0 101551
06:00+5сз376683 0.0 1016132
09:00+11сз575110 0.0 10161008
12:00+13ссз67483 0.0 10171394
15:00+15ссз56363 0.0 10171730
18:00+13ссз36432 0.0 1017130
21:00+8св33710 0.0 101931
17 сентября, пт
пт1700:00+6св117738 0.0 102010
03:00+5ююв11825 0.0 101910
06:00+5ююв018393 0.0 101910
09:00+11ююв225792 0.0 1019436
12:00+15ююз234097 0.0 10171547
15:00+16з2334100 0.0 10161878
18:00+14ссз4640100 0.0 1016246
21:00+11ссв3653100 0.0 1017165
18 сентября, сб
сб1800:00+11всв3557100 0.0 1018310
03:00+10всв4756100 0.1 1019524
06:00+8св486097 0.0 1020318
09:00+10всв6749100 0.0 1021783
12:00+13в5638100 0.0 10211266
15:00+13вюв4534100 0.0 10211419
18:00+12всв3637100 0.0 1021217
21:00+10всв4841100 0.0 1022260
19 сентября, вс
вс1900:00+9в51143100 0.0 1021400
03:00+9вюв51047100 0.1 1021483
06:00+7вюв41065100 0.7 1022513
09:00+7в71271100 1.3 1021398
12:00+8в61375100 0.8 1020424
15:00+9вюв71573100 2.1 1019602
18:00+9в91885100 2.4 1016669
21:00+10вюв91685100 4.1 1016808
20 сентября, пн
пн2000:00+9вюв91789100 2.3 1015714
03:00+9вюв81588100 4.8 1014641
06:00+9вюв81491100 0.2 1013536
09:00+11вюв71389100 0.3 1013603
12:00+11вюв71294100 0.3 1013666
15:00+12юв81289100 0.7 1013722
18:00+9вюв81592100 2.7 1013550
21:00+9вюв8158696 3.1 1014499